Regional Weather Roundup
Issued by NWS

Home | Current Version | Previous Version | Text Only | Print | Product List | Glossary Off
Versions: 1 2 3 4 5 6 7 8 9 10 11 12 13 14 15 16 17 18 19 20 21 22 23 24 25 26 27 28 29 30 31 32 33 34 35 36 37 38 39 40 41 42 43 44 45 46 47 48 49 50

000
ASUS43 KLOT 242006
RWRIL

ILLINOIS REGIONAL WEATHER ROUNDUP
NATIONAL WEATHER SERVICE CHICAGO/ROMEOVILLE IL
200 PM CST WED DEC 24 2014

NOTE: "FAIR" INDICATES FEW OR NO CLOUDS BELOW 12,000 FEET WITH NO
SIGNIFICANT WEATHER AND/OR OBSTRUCTIONS TO VISIBILITY.

* THESE STATIONS ARE NOT UNDER NWS QUALITY CONTROL. THEY ALSO MAY NOT
  REPORT WEATHER SUCH AS PRECIPITATION OR FOG.

ILZ001-002-007-009-015-016-024-242100-
NORTHWEST ILLINOIS

CITY           SKY/WX    TMP DP  RH WIND       PRES   REMARKS
MOLINE         CLOUDY    36  31  82 NW15G22   29.57F WCI  27
STERLING*      CLOUDY    36  32  87 NW13      29.54F WCI  27
SAVANNA*       CLOUDY    37  32  85 NW7       29.55F WCI  31
$$

ILZ003-004-008-010-011-017-018-242100-
NORTH CENTRAL ILLINOIS

CITY           SKY/WX    TMP DP  RH WIND       PRES   REMARKS
ROCKFORD       CLOUDY    37  33  85 NW8       29.53F WCI  31
FREEPORT*      CLOUDY    34  33  94 NW10      29.54S WCI  26
ROCHELLE*      CLOUDY    35  34  97 W9        29.52F FOG     WCI  28
DE KALB*       DRIZZLE   35  33  94 W12       29.50F WCI  26
PERU*          CLOUDY    37  35  92 W7        29.54F WCI  31
$$

ILZ005-006-012>014-019>023-242100-
NORTHEAST ILLINOIS

CITY           SKY/WX    TMP DP  RH WIND       PRES   REMARKS
CHICAGO-OHARE  CLOUDY    40  34  79 W10       29.48F
CHICAGO-MIDWAY CLOUDY    41  35  79 W9        29.48F
AURORA         CLOUDY    38  35  89 W9        29.51F FOG     WCI  31
LANSING*       LGT RAIN  39  37  92 W10       29.49S WCI  32
JOLIET*        CLOUDY    38  35  87 W9        29.51F WCI  32
WAUKEGAN       CLOUDY    39  34  82 W7        29.47F WCI  34
DUPAGE AIRPORT CLOUDY    38  34  85 W10       29.49F WCI  31
KANKAKEE*      LGT RAIN  37  37  97 W12       29.52S WCI  30
WHEELING       CLOUDY    40  34  79 W8        29.49F
MORRIS*        CLOUDY    38  37  96 W10       29.51F WCI  31
ROMEOVILLE*    CLOUDY    39  36  88 W10       29.50F WCI  32
NORTHERLY ISL    N/A     40  34  79 W10         N/A
$$

LMZ740>746-242100-
SOUTHERN LAKE MICHIGAN

STATION/POSITION SKY/WX   TEMP    WIND        PRES    VSBY  WAVE
                          AIR SEA DIR/SP/G                  HT/PER
                          (F)     (DEG/KT/KT) (MB)    (MI)  (FT/S)
WAUKEGAN HARBOR            39                   N/A
HARRISON CRIB              37     330/  7/  8   N/A
BURNHAM HARBOR             40     290/  6/ 12   N/A
CALUMET HARBOR             40     270/  5/  8  997.2F
MICHIGAN CITY              37     260/  9/ 10   N/A
$$

ILZ025>027-034>036-040-047-049-050-058-095>099-242100-
WEST-CENTRAL ILLINOIS

CITY           SKY/WX    TMP DP  RH WIND       PRES   REMARKS
QUINCY         CLOUDY    36  32  85 NW16      29.65S WCI  26
GALESBURG*     DRIZZLE   35  33  94 W12       29.59S WCI  26
MACOMB*        CLOUDY    36  34  94 NW15      29.63S WCI  26
JACKSONVILLE*  CLOUDY    38  36  90 W15       29.62S FOG     WCI  30
PITTSFIELD*    DRIZZLE   37  34  90 W13       29.65S WCI  29
$$

ILZ028>032-037-038-041>044-048-051>054-059>061-242100-
CENTRAL ILLINOIS

CITY           SKY/WX    TMP DP  RH WIND       PRES   REMARKS
PONTIAC        CLOUDY    38  36  92 W13       29.54F FOG     WCI  30
BLOOMINGTON    CLOUDY    37  35  92 W12       29.56S FOG     WCI  29
DECATUR        CLOUDY    38  35  89 W15G22    29.58S WCI  29
PEORIA         CLOUDY    38  33  82 NW9       29.58F WCI  31
LACON*         CLOUDY    37  33  87 W7        29.56S WCI  31
LINCOLN*       CLOUDY    38  35  88 W8        29.58F WCI  32
SPRINGFIELD    CLOUDY    38  34  85 W14       29.60F WCI  30
TAYLORVILLE    CLOUDY    36  34  93 W12G18    29.60S FOG     WCI  27
$$

ILZ033-039-045-046-055>057-062-063-242100-
EAST-CENTRAL ILLINOIS

CITY           SKY/WX    TMP DP  RH WIND       PRES   REMARKS
CHAMPAIGN      LGT RAIN  38  35  89 W20       29.55F FOG     WCI  28
DANVILLE*      LGT RAIN  37  35  94 W15       29.51S WCI  27
RANTOUL*       LGT RAIN  39  37  93 W16       29.54S WCI  30
MATTOON        LGT RAIN  38  36  92 W10       29.57S WCI  31
PARIS*         CLOUDY    38  37  96 W16       29.57R WCI  28
$$

ILZ079-100>102-242100-
SOUTHWEST ILLINOIS

CITY           SKY/WX    TMP DP  RH WIND       PRES   REMARKS
ALTON          CLOUDY    37  36  93 W15G22    29.65S WCI  28
BELLEVILLE     LGT RAIN  39  37  93 W13G23    29.66R WCI  32
CAHOKIA*       CLOUDY    40  35  83 W9        29.67S
SPARTA*        CLOUDY    39  35  86 W12G17    29.68R WCI  32
$$

ILZ064>066-069>071-074>076-080>082-084>086-088>090-092>094-242100-
SOUTH-CENTRAL ILLINOIS

CITY           SKY/WX    TMP DP  RH WIND       PRES   REMARKS
CARBONDALE     CLOUDY    41  35  79 W9        29.68R
CAIRO*         CLOUDY    44  38  79 W7        29.70S
EFFINGHAM*     CLOUDY    39  35  85 SW10      29.62S WCI  32
MARION         CLOUDY    41  37  87 W9        29.68S
MT. VERNON     CLOUDY    39  34  81 W7        29.65R WCI  34
CENTRALIA*     CLOUDY    40  35  83 W10G17    29.64R
SALEM*         CLOUDY    41  37  84 W10       29.63S
METROPOLIS*    CLOUDY    42  41  99 W8        29.68R
$$

ILZ067-068-072-073-078-083-087-091-242100-
SOUTHEAST ILLINOIS

CITY           SKY/WX    TMP DP  RH WIND       PRES   REMARKS
LAWRENCEVILLE  CLOUDY    40  39  97 W10       29.61R
FLORA*         CLOUDY    39  36  90 W10       29.63S WCI  32
FAIRFIELD*     CLOUDY    40  37  87 W7        29.63R
HARRISBURG*    CLOUDY    40  38  93 W14       29.67R
ROBINSON*      DRIZZLE   39  37  92 W15       29.61R WCI  30
CARMI*         CLOUDY    42  40  93 W12G18    29.64R
$$

ABBREVIATIONS USED IN REMARKS
   TC - TEMPERATURE IN CELSIUS
  WCI - WIND CHILL INDEX
   HX - HEAT INDEX
  VSB - VISIBILITY
$$




USA.gov is the U.S. government's official web portal to all federal, state and local government web resources and services.